Nature

Eilat Airport (ETH/LLET) is an Israeli airport located in the city of Eilat and named for Arkia Airlines founder Yakov Hozman (Jacob Housman).
Eilat Airport is located in the central area of the city, next to Route 90 (The Arava Road).
It mostly handles domestic flights to Tel Aviv and Haifa with international flights operating instead to Uvda International Airport.
Eilat Airport is the southernmost airport in the State of Israel.
The Eilat Airport was established in 1949 and currently averages about 1,424,098 and 19,392 aircraft per year.

At Eilat Airport you can find a single runway (21/03).

Scenery:

Sim Download Size Author
P3D & FSX LLET Eilat 33.3MB Freeware ISP
P3D & FSX ICVFR Eilat Scenery 73.8MB Freeware Chris Bell

Charts:

File Name
General Aerodrome Chart
Ground Parkings Chart
CVFR Entry / Exit Routes (CVFR)
CVFR Entry / exit routes (CVFR), using an east approach
Departure SAMAR1A, SAMAR1B RWY 21/03
CVFR Traffic Pattrens Chart
Approach KITOR Y VIS RWY 21
Approach NESICHA VIS RWY 03

METAR & TAF:

Available data for LLET from the past hour
ELAT/J. HOZMAN(A
Metar
LLET 201450Z 02013KT CAVOK 19/03 Q1016 RMK FEW130

14:50 UTC

Wind: 20° 13kt

Visibility:

Sky:

Temp: 19 deg C / 66.2 deg F

Dewpoint: 3 deg C / 37.4 deg F

Pressure: 1016 hPa

TAF
TAF LLET 201100Z 2012/2112 02010KT CAVOK PROB30 2020/2110 VRB03KT 9999 -RA BKN080 TX21/2013Z TN10/2104Z